KUIPER-00260

导读 | 豆包AI

KUIPER-00260是亚马逊柯伊伯(Project Kuiper)低轨卫星互联网星座中的一颗卫星,于2026年2月12日由法国发射,是该项目大规模部署阶段的任务星之一。柯伊伯计划旨在通过数千颗低轨卫星为全球提供高速低延迟互联网接入,该卫星将助力项目完成全球覆盖目标,推动太空互联网基础设施建设。

Basic Information
目录编号:
67787
目录名称:
KUIPER-00260
国际标识:
2026-030Z
轨道中心:
EARTH
卫星名称:
KUIPER-00260
卫星全名:
KUIPER-00260
卫星状态:
在轨 (已飞行102 天)
发射日期:
2026-02-12 UTC
国别 :
美国 (US)
星等 :
--
Orbit Information
数据来源 国际轨道数据
星历时间: 2026-05-24T12:00:02+0800
1天前
查看轨道信息
半长轴: 7018.921km
偏心率: 0.0002291
轨道倾角: 51.900°
近地点辐角 129.445°
升交点赤经 221.428°
平近点角 127.105°
近地点: 639.175km
远地点: 642.393km
周期: 97.536分钟
每日圈数: 14.76377
Detailed Information
使用方式:
暂无
2D Orbit Map
3D Orbit Map
Orbit Altitude Analysis Chart
Orbit Inclination Analysis Chart
Orbit Comprehensive Analysis Chart
View Comprehensive Chart